Location: Haram ta Haram Freeway
(35.0583°N, 51.4202°E)
Time: 11:41:12
(UTC+04:30)

ISS - Pass Details

Date: 13 July 2022
Orbit: 412 x 420 km, 51.6° (Epoch: 15 August)

Event Time Altitude Azimuth Distance (km) Brightness Sun altitude
Rises 04:17:05 0° 322° (NW) 2,361 0.2 -17.9°
Reaches altitude 10° 04:19:28 10° 338° (NNW) 1,497 -0.7 -17.5°
Maximum altitude 04:22:13 23° 33° (NNE) 934 -1.1 -17.1°
Drops below altitude 10° 04:25:00 10° 89° (E) 1,496 -0.3 -16.7°
Sets 04:27:22 0° 104° (ESE) 2,358 0.5 -16.3°
